星链-32524 (STARLINK-32524)

导读 | 星芒AI

STARLINK-32524 是 SpaceX Starlink 卫星互联网项目中的一颗低轨卫星,属于第 6 批次部署的星链卫星之一。该卫星于 2023 年发射,旨在为全球提供高速、低延迟的宽带互联网服务。它运行在约 550 公里的近地轨道上,采用先进的通信技术,支持全球范围内的网络连接,尤其服务于偏远和网络基础设施薄弱的地区。作为星链计划的一部分,STARLINK-32524 有助于构建一个由数千颗卫星组成的全球通信网络。

基本信息
目录编号:
62159
目录名称:
STARLINK-32524
国际标识:
2024-224W
轨道中心:
EARTH
卫星名称:
星链-32524
卫星全名:
星链-32524 (STARLINK-32524)
卫星状态:
在轨 (已飞行385 天)
发射日期:
2024-11-30 UTC
国别 :
美国 (US)
星等 :
--
轨道信息
数据来源 国际轨道数据
星历时间: 2025-12-19T18:03:43+0800
1天前
查看轨道信息
半长轴: 6861.167km
偏心率: 0.000075
轨道倾角: 42.998°
近地点辐角 324.912°
升交点赤经 254.894°
平近点角 35.169°
近地点: 482.515km
远地点: 483.545km
周期: 94.266分钟
每日圈数: 15.275867
详细信息
固有亮度:
5
最大亮度:
2.5
卫星平台:
Starlink V1.0
覆盖范围:
全球
运营商:
太空探索技术公司
运营商所在国:
美国
制造商(研发单位):
太空探索技术公司
制造商所在国:
美国
使用方式:
暂无
卫星简介
Starlink 计划是 SpaceX 推出的全球卫星互联网项目,通过发射低轨道卫星,为全球尤其是偏远地区提供高速、低延迟的互联网服务。自 2019 年起,Starlink 已部署数千颗卫星,旨在缩小全球数字鸿沟,推动互联网普及。该项目还为军事、航空等行业提供通信支持,带来广泛经济效益。
2D轨道图
3D轨道图
轨道高度分析图
轨道倾角分析图
轨道综合分析图
查看轨道综合分析图